Wind_Speed
11 10 9 9 9 9 9 10 11 12 13 13 12 12 11 11 11 11 12 13 13 13 11 10 10 11 14 15 17 20 21 22 23 23 23 22 22 22 23 26 28 29 28 28 26 23 21 19 16 13 10 9 9 10 10 10 9 6 4 3 1 2 2 3 5 4 3 5 6 4 7 7 5 6 9 10 10 9 8 9 13 14 11 11 12 14 18 20
12 11 11 10 10 9 9 9 10 11 12 12 13 12 12 11 11 11 12 12 13 13 13 11 10 10 12 13 15 17 19 21 22 23 24 23 22 21 21 24 27 28 29 28 26 25 23 21 18 14 12 11 10 11 11 11 11 8 5 4 2 2 1 3 5 4 3 5 6 4 6 7 5 4 5 8 9 9 9 10 13 15 14 13 12 14 17 19
13 12 12 11 10 10 9 9 9 10 11 11 12 13 12 12 11 11 12 12 12 13 13 12 11 10 11 12 13 15 17 17 19 21 23 23 22 21 21 22 25 27 29 28 27 26 25 23 20 16 14 13 12 12 11 11 11 9 8 6 4 2 1 1 4 5 3 5 7 4 4 7 6 5 4 7 8 5 8 9 10 14 15 14 14 15 16 18
13 13 13 12 11 11 10 10 10 10 10 11 11 12 12 12 12 12 12 12 12 12 13 13 12 10 10 11 11 13 13 11 14 19 20 21 21 21 21 21 23 26 28 29 29 28 26 25 21 18 16 14 14 14 12 11 8 8 9 7 4 2 2 2 3 6 5 5 8 6 4 7 7 6 4 6 7 4 7 7 3 7 11 13 14 15 15 16
14 14 13 13 12 12 11 11 10 10 10 10 10 11 11 12 12 12 12 12 13 13 12 13 12 11 10 10 10 11 10 6 9 15 16 18 19 21 21 21 22 24 27 29 30 29 28 27 23 21 19 17 16 15 13 12 9 8 10 8 6 4 2 3 4 6 7 7 8 6 4 6 6 7 5 6 6 4 7 6 3 6 8 10 12 14 15 15
14 14 14 14 13 13 12 12 11 11 11 11 10 11 11 11 11 11 12 12 12 12 13 12 12 11 10 10 10 10 9 5 8 13 13 16 18 20 22 22 23 24 26 29 31 31 29 28 26 23 21 18 17 16 12 11 11 10 10 10 8 7 5 4 5 7 8 7 6 5 6 6 4 7 7 9 8 7 10 9 7 9 8 8 11 13 15 15
15 15 14 14 14 14 13 13 13 12 12 11 11 11 11 11 11 11 11 11 12 12 13 12 12 12 11 10 9 10 10 8 12 15 13 14 17 20 22 23 24 25 26 28 31 32 31 30 27 24 22 19 17 16 12 11 13 12 10 10 9 8 8 7 7 8 8 6 5 5 7 6 4 8 8 10 9 8 14 14 10 10 11 11 11 12 13 13
16 16 15 15 15 14 14 14 14 14 13 13 12 11 11 11 11 11 11 11 11 12 12 12 12 12 12 11 10 10 9 9 13 16 15 14 17 19 22 24 26 26 27 28 30 31 32 32 29 25 23 20 16 15 14 12 13 14 14 11 10 10 9 9 10 9 7 9 9 9 9 6 5 8 8 10 9 8 15 16 13 12 11 11 11 12 12 13
17 17 16 16 16 15 15 15 15 15 15 14 13 12 12 12 11 11 12 12 12 12 12 11 11 11 11 11 11 9 7 9 12 14 14 15 17 19 22 24 26 28 28 28 29 31 32 33 30 26 22 19 17 15 14 14 12 13 14 13 11 11 10 11 11 9 8 11 11 9 10 8 9 9 9 10 8 10 14 14 13 13 12 12 12 12 13 14
18 17 17 17 17 17 16 16 16 16 16 16 15 13 13 12 12 12 12 12 12 12 12 12 11 10 11 11 11 10 9 10 12 13 14 16 18 20 22 24 26 28 29 29 31 32 34 33 29 25 23 19 17 17 15 14 12 10 11 13 13 12 12 12 10 9 11 12 10 9 11 12 11 9 10 12 10 10 13 13 12 11 12 13 13 13 13 14
19 18 18 18 18 18 18 18 17 17 17 17 16 15 14 13 12 13 13 13 13 13 13 12 12 11 12 12 10 11 12 11 12 13 14 16 19 21 22 24 26 28 29 31 32 33 34 32 28 26 25 21 18 18 17 16 15 12 12 13 15 15 14 14 10 11 12 12 10 11 14 13 12 10 10 13 12 11 11 12 12 11 11 13 14 13 13 14
20 20 19 19 19 18 18 19 18 19 19 18 18 16 15 14 14 13 13 14 14 14 13 13 14 13 14 12 7 9 13 13 13 14 14 16 19 21 23 23 25 27 29 31 31 33 33 32 32 29 24 21 18 16 17 19 17 15 15 13 13 14 15 13 11 13 12 12 12 13 14 14 15 12 12 13 13 13 12 11 12 11 10 11 12 13 14 14
20 20 20 20 20 20 19 19 19 19 20 19 19 17 16 16 15 14 14 14 14 14 14 15 15 15 16 13 8 11 15 13 13 13 13 16 18 20 22 22 24 26 28 31 32 33 34 35 35 29 23 22 17 15 16 17 17 16 15 14 11 11 13 13 14 16 13 13 14 13 11 11 15 15 14 13 14 16 14 13 12 11 11 10 10 12 13 14
21 21 21 21 21 21 21 20 20 20 21 21 20 19 18 17 17 16 15 15 15 15 15 16 16 17 17 13 11 14 14 11 12 11 12 14 17 20 21 21 23 25 28 30 32 34 36 36 33 29 30 26 17 17 17 13 15 16 13 14 14 11 11 14 16 16 15 15 15 13 10 7 9 15 15 13 14 16 15 15 14 13 12 11 10 11 12 13
22 22 22 22 22 23 22 22 21 21 22 21 21 20 19 19 18 17 16 16 16 16 16 17 17 18 20 14 12 14 12 9 10 10 11 12 15 18 19 20 22 25 27 30 33 35 35 34 33 32 31 28 22 20 18 13 13 14 14 15 15 13 11 12 17 17 17 17 15 14 12 6 7 12 12 12 15 16 16 16 15 14 14 13 12 11 11 12
21 21 22 22 23 23 23 23 23 23 23 23 22 21 20 20 19 19 18 17 17 17 17 18 18 19 20 15 12 12 8 7 9 10 10 12 15 18 19 20 21 24 26 29 32 33 34 34 33 31 26 25 27 21 18 18 16 16 18 16 14 15 13 12 17 18 18 18 16 15 12 6 8 12 10 12 15 16 17 17 16 15 15 16 15 14 14 14
21 20 21 21 23 24 24 23 24 24 24 24 23 22 22 21 21 20 19 19 18 19 19 19 19 19 18 16 12 10 8 7 9 10 11 12 15 17 18 19 20 23 25 28 30 31 34 35 33 31 27 24 25 22 21 22 20 19 19 17 13 14 14 13 15 18 19 19 18 17 15 8 8 12 9 9 14 17 19 19 18 17 16 17 18 18 17 17
20 20 20 20 21 23 23 23 24 24 25 25 24 23 23 23 22 22 21 21 20 20 20 19 19 16 11 9 9 11 13 14 11 12 12 13 15 17 18 18 19 22 25 27 28 30 33 34 32 30 29 27 26 26 27 24 22 20 19 18 15 13 15 15 14 18 21 21 17 17 18 14 12 17 14 9 10 14 20 21 20 20 19 19 20 21 20 20
20 20 21 20 21 22 22 23 23 24 25 25 25 24 24 24 23 24 23 22 22 20 20 20 20 15 10 11 13 16 21 19 15 14 15 14 16 18 18 19 20 21 23 24 25 30 33 31 30 30 30 30 29 30 29 24 20 19 18 18 17 14 16 16 14 17 20 20 18 17 18 17 15 19 20 15 11 10 16 23 24 23 22 22 21 22 23 22
20 20 20 20 21 22 22 22 22 24 24 24 25 24 24 24 23 25 25 23 22 21 21 22 23 20 16 18 18 19 22 21 17 15 17 17 16 18 19 20 20 20 21 21 21 28 32 30 31 33 31 29 30 29 28 24 19 18 18 18 17 16 16 17 16 19 20 17 17 18 17 16 16 16 19 18 17 14 13 19 25 27 26 25 24 24 24 24
21 20 20 20 21 22 22 22 22 23 23 23 24 23 23 24 23 25 27 24 22 23 23 23 25 22 16 15 17 18 20 21 18 16 18 18 18 19 21 22 22 22 22 20 18 23 29 31 32 32 30 26 27 28 28 26 21 18 19 18 18 17 15 16 16 18 21 17 15 17 17 17 16 16 18 19 18 18 14 13 19 25 27 28 27 26 25 24
22 21 20 20 20 21 22 22 23 23 23 23 23 23 23 23 24 25 28 26 21 21 22 22 24 21 15 15 17 19 21 20 17 18 20 20 20 20 21 24 24 23 23 22 19 21 27 32 31 28 28 25 24 27 29 28 25 22 21 19 19 18 15 15 15 15 19 18 14 14 17 18 17 17 20 20 18 17 16 14 15 20 25 28 29 28 27 27
23 22 21 20 20 21 22 22 23 23 23 22 22 23 23 23 24 24 27 27 21 18 19 20 22 19 15 18 20 19 19 17 15 17 21 22 22 21 21 24 25 22 23 26 25 23 26 30 28 26 26 25 24 26 28 28 27 26 24 22 21 18 16 18 17 16 18 18 15 14 15 16 16 17 21 22 19 19 18 17 16 18 22 25 27 29 30 30
23 22 21 21 19 20 21 22 23 24 23 22 22 22 22 22 23 23 25 27 25 18 13 15 18 17 18 19 19 17 15 13 12 16 21 23 22 22 23 24 25 24 24 28 28 25 23 22 25 26 25 26 25 24 27 28 28 28 27 25 22 19 19 20 17 15 16 17 17 15 14 16 17 18 22 22 21 22 21 19 19 19 20 21 24 27 30 31
23 23 21 21 20 19 21 22 22 24 23 22 22 22 22 22 22 22 22 23 24 19 12 14 17 18 19 18 16 14 12 11 12 16 20 22 22 23 25 24 25 26 25 26 27 27 24 20 23 26 27 29 28 26 28 28 28 28 28 28 24 19 19 21 18 16 16 18 20 17 12 16 19 20 22 20 22 24 22 22 21 21 21 20 21 25 28 30
24 23 22 22 21 19 20 21 22 23 22 22 22 21 20 21 19 19 19 16 19 21 17 16 15 15 15 15 15 12 9 11 13 15 17 19 22 23 22 23 25 25 24 24 25 26 25 22 24 25 27 31 30 27 28 28 28 28 27 28 26 21 18 20 20 20 20 18 18 18 15 15 18 20 20 20 23 23 21 22 22 22 23 22 21 22 24 27
25 24 23 22 22 21 19 20 22 22 21 21 21 19 19 19 17 16 13 10 12 16 15 13 12 14 14 14 14 10 7 8 9 10 13 16 22 24 22 22 25 23 21 22 23 26 27 24 23 24 26 29 31 30 28 28 29 28 24 24 27 25 20 18 21 23 23 19 16 17 17 18 19 17 17 19 21 19 18 21 22 22 24 23 23 22 21 23
25 25 24 21 22 23 20 20 21 21 20 20 19 18 17 16 16 12 7 6 6 6 8 12 14 14 15 14 12 10 10 9 6 8 12 15 20 25 25 23 23 21 22 25 24 22 26 30 28 27 27 28 32 31 26 26 30 27 20 19 25 26 22 19 21 23 23 21 20 21 19 18 19 17 16 19 21 19 17 18 19 21 22 23 24 24 23 22
25 26 24 21 22 23 22 21 21 20 20 20 18 17 16 15 13 7 4 6 6 6 7 12 14 13 13 12 9 9 10 10 9 11 13 15 21 25 25 23 21 20 23 27 25 17 19 30 33 30 30 29 29 29 26 27 29 25 17 15 20 23 23 22 20 21 23 23 23 24 23 17 15 18 19 19 21 21 18 17 19 19 19 20 23 24 25 24
26 26 25 23 22 23 23 22 22 21 19 19 17 16 16 14 11 8 8 8 6 8 11 14 15 12 11 8 6 7 8 9 11 14 12 15 22 26 23 21 21 21 21 25 27 20 14 20 29 30 30 28 24 25 27 27 27 23 17 14 16 19 21 21 20 21 20 19 21 24 23 18 14 17 20 21 24 22 17 18 19 19 18 18 19 22 25 26
26 26 26 24 22 22 22 22 22 21 19 18 17 16 16 14 13 11 9 10 9 9 12 15 16 13 10 9 8 8 8 8 9 13 14 16 23 27 22 20 22 22 21 24 26 25 17 16 25 29 29 27 23 23 25 27 28 24 19 18 17 15 16 17 18 19 14 13 20 25 24 20 17 20 18 18 23 22 17 18 19 20 21 18 17 18 20 24
26 26 26 26 23 21 22 23 21 20 19 18 16 16 16 13 17 19 12 8 8 10 11 14 17 15 12 13 12 9 9 8 8 12 16 18 24 29 27 25 26 25 23 24 23 25 25 21 21 23 27 30 27 24 24 27 31 29 24 24 20 14 13 13 14 14 13 15 20 23 24 23 22 24 21 16 19 20 18 18 18 18 22 23 19 14 15 18
26 26 25 26 25 22 23 24 21 19 19 18 18 19 18 14 18 22 20 13 7 8 12 15 15 16 16 15 13 11 10 9 10 12 16 20 22 27 30 27 28 26 22 21 22 23 24 23 24 22 24 32 34 30 28 27 31 33 31 29 23 15 10 10 11 11 12 18 21 20 20 21 22 23 23 22 23 22 20 20 20 18 20 23 18 12 13 15
25 26 25 26 26 23 23 24 22 20 19 20 21 20 21 22 19 17 21 21 13 8 10 13 13 14 16 16 13 12 12 9 11 14 16 21 22 25 28 28 28 27 21 19 23 24 20 20 29 31 24 28 36 36 30 26 29 35 35 31 28 24 17 12 11 13 14 17 21 21 17 18 20 19 20 22 22 22 20 19 18 18 17 17 16 12 12 14
24 26 26 25 25 24 23 24 23 21 20 22 23 24 28 29 22 15 19 22 19 14 12 12 14 12 14 17 15 14 16 12 10 15 18 21 24 24 27 29 30 29 25 21 20 22 22 19 24 32 27 24 31 36 32 25 26 32 35 34 34 32 27 21 18 20 21 17 18 21 19 20 21 18 18 18 18 19 20 19 19 19 16 14 14 13 12 13
24 24 26 26 26 24 23 24 23 22 23 23 26 31 36 32 21 15 15 17 19 19 15 15 18 17 17 19 17 16 19 16 12 15 19 21 23 24 25 27 29 31 29 24 18 18 22 19 17 25 30 27 27 32 35 31 26 27 34 39 36 30 29 28 22 19 19 16 17 20 19 21 23 22 24 25 23 23 23 21 21 21 19 17 16 15 16 16
25 24 24 25 25 24 23 23 23 23 24 26 31 37 37 31 24 18 13 12 17 18 17 18 19 20 19 20 20 19 19 18 16 16 18 20 22 23 24 25 28 32 30 25 19 17 17 17 16 22 29 30 26 27 33 35 29 26 31 37 33 26 27 30 23 15 14 13 16 22 21 21 23 21 22 23 24 24 24 21 20 19 19 18 15 16 19 20
26 24 24 24 24 23 23 23 23 24 24 28 37 40 34 28 26 24 18 15 15 15 17 18 16 16 17 17 17 18 18 18 18 18 18 18 18 20 24 24 25 30 30 26 22 17 15 16 17 22 26 27 27 26 29 35 36 31 27 29 31 26 24 29 23 15 15 12 12 21 24 23 25 22 18 17 18 18 18 17 15 17 18 16 14 16 17 19
26 24 24 24 22 22 22 22 23 24 26 32 38 38 35 32 28 27 26 22 17 15 17 19 16 15 16 16 13 14 18 18 16 16 17 16 14 15 20 24 24 26 29 30 25 18 15 16 16 19 24 25 28 31 32 34 37 37 29 26 33 32 26 29 28 21 18 13 11 18 21 21 26 27 22 20 18 15 15 16 15 15 17 17 16 17 16 17
26 24 25 25 22 22 22 22 23 25 29 36 38 33 30 30 28 30 33 32 27 23 21 21 19 18 18 18 16 14 16 16 14 14 15 14 13 11 14 20 23 25 27 29 29 22 17 17 16 15 20 25 30 35 38 36 34 38 36 30 32 33 28 29 32 32 27 16 10 12 15 20 23 24 27 27 24 20 18 19 19 18 18 19 20 20 18 16
26 24 25 25 23 22 22 23 26 28 31 35 36 33 29 26 25 26 29 34 33 30 26 23 23 22 20 20 20 18 17 18 17 16 15 15 14 11 12 18 21 22 25 29 30 26 20 19 18 16 19 26 30 32 36 37 34 35 36 35 33 30 28 25 24 32 35 27 21 16 13 19 21 18 23 27 27 26 22 19 21 20 18 19 20 20 18 17
26 24 23 25 24 22 23 25 26 26 29 32 32 30 29 29 29 27 25 27 29 30 29 27 26 24 22 21 21 20 19 20 20 20 17 16 17 12 9 14 19 20 23 27 29 27 22 18 19 19 18 22 25 25 28 33 35 35 33 36 37 33 33 29 20 26 34 31 33 30 20 22 23 17 17 20 23 26 25 21 21 20 19 20 20 18 17 17
27 26 23 24 25 23 23 26 24 23 27 30 30 27 26 27 30 29 26 24 26 28 28 28 28 28 26 23 22 21 21 20 21 21 19 16 17 16 11 11 14 16 19 23 25 26 24 19 19 21 19 18 21 23 24 26 32 37 35 35 38 37 38 37 28 28 33 31 33 29 21 22 24 18 16 15 18 23 23 22 23 22 23 23 21 19 18 18
27 27 23 22 24 22 23 23 20 19 22 24 24 25 25 25 26 25 24 23 25 25 26 26 26 27 27 24 23 23 22 21 20 21 21 20 17 18 18 16 13 12 14 18 20 24 26 24 21 19 15 15 18 19 22 25 27 34 36 35 37 38 38 38 34 32 33 35 35 28 21 25 26 21 18 14 14 15 16 19 24 25 25 24 23 21 20 20
25 25 21 19 19 19 21 20 17 18 19 18 20 21 22 24 25 24 23 23 23 22 23 24 23 24 25 24 24 24 23 22 19 16 17 20 18 18 21 22 18 13 14 17 18 20 23 24 25 22 15 13 15 17 22 26 27 30 33 35 37 38 38 37 35 34 32 32 36 34 28 29 29 26 23 22 20 18 16 17 19 20 21 21 21 21 19 19
23 22 19 15 16 18 19 18 18 19 18 17 19 18 18 21 22 22 24 25 25 23 21 20 20 21 23 24 24 24 23 24 21 17 14 15 16 16 20 25 23 17 16 19 20 18 17 20 25 27 26 22 20 20 21 23 25 28 31 34 36 37 39 38 36 37 34 28 32 38 34 31 32 30 27 27 29 27 24 21 18 17 19 19 20 22 21 21
21 19 16 14 16 16 14 14 16 18 16 16 17 16 15 16 16 16 19 23 25 25 23 21 20 21 21 23 24 23 22 22 23 22 19 16 15 14 17 25 26 22 20 19 19 18 16 18 22 26 30 29 26 24 23 22 24 26 28 32 34 33 36 41 41 41 37 28 28 34 34 34 36 35 29 27 27 26 26 27 25 23 23 22 24 27 27 26
18 18 16 16 18 15 14 16 18 19 18 16 17 17 16 16 15 14 15 17 20 23 24 23 23 24 23 21 22 22 22 22 23 25 23 21 19 17 17 21 22 22 21 17 16 17 18 20 22 23 27 30 29 28 27 26 25 25 26 28 32 33 34 38 41 41 40 35 30 27 30 35 38 38 36 30 25 23 25 28 30 29 28 29 30 30 28 28
18 18 17 18 21 21 20 20 20 22 21 19 19 19 17 17 17 16 14 13 16 20 23 24 23 23 24 23 22 21 20 20 21 22 22 21 21 22 21 20 19 21 21 18 16 17 19 20 21 22 24 28 30 30 31 31 30 29 29 29 30 33 35 37 38 38 40 42 37 29 29 33 35 38 42 39 33 29 27 27 29 30 30 31 30 28 27 28
19 18 18 20 23 23 22 22 22 23 24 23 23 21 19 18 17 17 16 15 15 15 18 21 21 20 21 25 27 25 22 20 17 16 16 17 18 20 21 19 18 20 21 20 18 18 20 19 17 18 22 25 29 32 32 33 34 32 33 33 32 33 34 36 37 37 38 40 39 35 34 35 33 32 37 40 38 35 32 30 29 32 34 34 32 29 27 26
22 22 21 23 24 22 21 21 21 22 23 23 22 20 19 17 16 19 22 22 19 15 12 16 19 20 19 20 22 22 20 18 17 15 14 15 16 16 17 15 14 16 19 20 19 19 20 19 15 15 18 21 25 30 32 34 35 36 36 35 34 35 35 35 35 35 36 37 37 38 40 39 34 31 32 36 39 39 37 34 32 33 37 39 37 32 28 26
22 24 22 22 24 24 22 21 20 22 23 21 18 17 17 16 18 23 25 23 22 20 17 17 19 21 19 16 14 16 19 21 22 21 21 22 22 21 21 18 16 15 17 19 20 19 19 19 17 15 16 17 18 21 28 31 30 32 36 35 34 35 35 35 35 34 33 33 33 36 38 35 31 31 33 35 37 40 41 40 38 35 34 38 39 34 29 29
Wind_Direction
301 301 302 303 307 311 309 303 296 291 288 287 287 289 293 298 304 308 311 315 319 319 316 309 296 281 270 264 260 256 255 254 255 255 254 250 246 241 236 234 232 234 236 237 239 240 243 247 251 253 253 256 252 252 252 250 256 262 257 249 212 166 176 158 153 143 117 153 163 113 107 121 109 127 138 137 144 164 175 169 169 168 168 172 183 189 184 177
299 299 299 299 300 304 307 308 304 297 292 289 288 289 290 293 298 303 307 310 314 318 319 315 307 294 281 274 265 260 257 255 256 256 255 253 249 242 236 233 229 228 231 232 234 237 241 243 246 247 245 247 247 249 254 255 253 249 242 241 226 161 140 159 171 165 135 173 179 125 115 127 113 112 124 141 158 161 163 173 172 174 181 179 178 185 190 184
297 297 297 298 298 299 301 304 306 304 299 294 291 290 290 291 294 297 301 304 307 312 315 316 314 305 295 284 276 270 262 259 260 257 255 253 250 242 234 231 227 225 226 228 230 232 236 238 239 237 234 235 241 247 251 256 254 246 239 234 221 197 229 199 190 192 169 182 189 168 134 143 131 110 112 151 171 167 164 173 174 180 185 181 178 181 189 189
294 294 295 295 296 297 297 298 300 303 303 300 296 293 292 291 292 293 295 298 301 305 309 313 315 312 304 295 289 282 275 273 266 258 255 252 248 242 233 226 226 223 222 224 226 228 232 235 234 231 229 228 235 246 247 251 252 237 230 220 207 218 263 254 212 205 198 187 189 197 171 159 144 117 113 151 167 176 176 182 184 186 183 180 179 177 184 191
290 291 292 293 294 294 295 296 296 297 298 300 300 298 297 295 293 293 293 293 295 299 303 307 312 315 311 303 298 291 292 294 267 258 252 246 242 239 232 223 222 221 220 221 224 226 229 232 232 229 230 226 232 243 245 247 245 231 228 222 224 247 270 261 237 213 208 193 195 214 192 178 151 124 125 127 141 170 179 185 183 177 178 178 179 175 178 185
286 287 288 290 291 292 293 293 293 293 293 293 296 299 300 300 300 297 295 293 293 295 298 303 309 313 315 308 303 296 286 265 257 255 243 237 234 233 230 222 218 218 218 219 220 224 227 230 231 230 233 232 233 241 243 246 244 234 231 230 234 244 252 258 250 236 225 204 208 223 198 198 146 131 144 136 152 179 172 172 167 165 165 173 183 178 175 178
285 284 285 285 287 289 290 290 291 291 290 289 290 293 297 300 303 302 300 298 296 295 296 300 305 308 312 310 305 295 281 265 261 256 242 231 227 227 227 221 216 215 215 216 218 221 224 228 230 231 233 233 234 239 236 237 242 230 223 229 234 238 247 254 255 258 247 212 211 220 212 217 150 145 157 153 170 177 162 161 155 158 160 168 180 180 176 174
285 285 284 283 284 284 286 287 288 289 289 288 287 289 292 295 299 301 302 302 301 300 301 302 304 306 306 309 307 296 293 280 261 255 246 230 222 222 224 221 216 214 212 213 215 218 223 226 229 230 230 232 234 238 233 230 238 231 222 228 238 245 251 256 258 260 244 209 208 219 228 228 168 165 167 161 167 162 163 162 152 151 155 163 170 172 175 172
283 284 284 283 283 282 283 283 284 286 286 287 287 287 288 291 294 297 299 300 302 303 306 306 306 306 304 308 306 294 294 279 256 251 247 232 220 219 221 221 217 214 212 210 211 214 219 222 226 228 228 231 232 233 232 231 239 237 228 229 242 253 257 265 264 249 217 202 210 223 229 221 192 177 173 178 172 159 165 163 153 151 150 155 164 171 176 174
279 280 281 282 282 281 281 281 282 283 284 284 285 286 287 288 290 292 295 297 299 302 304 306 306 306 305 306 302 291 286 278 262 252 248 235 222 218 220 221 218 215 212 210 210 211 215 219 222 226 225 225 228 231 229 230 239 238 230 231 242 251 257 275 270 229 203 204 215 216 213 215 210 188 180 195 189 170 167 160 155 154 155 157 161 170 177 181
276 276 277 278 279 280 280 280 281 281 282 283 283 285 286 287 287 287 290 292 296 299 299 301 300 301 301 299 303 298 286 277 264 252 247 239 226 218 217 219 219 216 214 212 210 210 214 216 217 219 221 222 226 233 231 231 236 236 235 240 251 253 259 280 265 218 206 209 209 201 207 221 223 201 194 208 198 184 175 161 157 157 162 164 166 171 176 183
276 275 275 275 275 275 276 277 279 280 280 281 282 283 284 285 286 285 286 288 291 294 296 298 296 297 295 293 308 305 288 278 265 254 247 241 231 220 217 218 220 217 215 212 209 209 210 212 215 213 217 222 224 233 234 232 233 239 242 244 258 257 261 273 242 213 212 212 203 196 208 229 232 212 204 214 202 192 187 169 165 165 168 171 173 179 179 182
279 277 275 274 274 272 272 273 274 277 278 279 280 281 283 283 283 284 285 286 288 290 292 294 293 294 290 290 307 298 286 278 266 258 248 242 235 224 217 218 221 219 216 212 208 209 208 210 214 210 212 218 219 225 229 233 234 237 242 238 248 252 251 257 232 210 206 214 212 203 208 226 230 220 213 214 201 196 194 183 178 176 181 186 182 186 188 189
284 282 279 276 275 273 272 270 270 271 273 275 276 279 280 280 281 282 283 284 286 287 288 289 290 291 286 289 304 293 284 276 262 253 246 239 234 226 218 216 220 221 216 213 209 208 208 209 208 205 210 212 213 225 225 232 236 230 234 232 233 236 230 242 236 208 199 217 218 211 217 219 211 214 217 213 204 202 198 194 192 188 192 199 200 198 198 203
289 286 284 281 278 276 273 272 270 269 269 270 272 274 275 277 279 280 281 283 284 285 285 285 285 288 287 290 298 287 279 273 257 244 239 230 226 225 218 213 216 220 217 213 211 209 208 206 203 204 211 211 210 221 221 224 231 220 221 224 222 223 211 227 234 206 200 221 216 208 221 222 199 208 214 208 208 209 204 201 199 198 201 205 212 213 209 214
291 289 286 284 281 279 277 275 273 271 270 269 269 270 270 272 275 276 278 279 280 282 281 282 282 284 286 290 294 280 269 275 265 246 233 220 218 221 218 212 212 217 216 213 211 210 207 203 201 202 207 213 213 215 217 220 222 213 220 224 213 212 203 216 231 209 204 224 219 209 218 219 201 212 224 218 214 212 211 210 205 204 207 209 215 221 221 222
290 289 288 285 283 281 280 279 277 274 272 271 270 270 269 269 270 272 274 275 277 277 277 280 280 281 285 287 278 254 254 288 277 255 237 218 213 216 217 213 211 214 213 211 209 208 207 202 201 203 203 210 211 211 216 217 215 209 218 226 217 213 206 206 220 209 206 222 221 214 219 224 215 223 236 230 222 218 218 220 215 212 211 213 218 222 225 226
287 287 287 286 285 283 281 280 279 277 275 274 272 270 270 270 269 269 269 270 272 273 277 277 274 279 289 283 258 246 271 288 273 255 245 223 212 212 213 212 210 212 210 208 206 205 205 201 200 206 206 208 207 208 214 214 212 209 211 219 219 216 211 205 210 210 212 220 218 213 219 224 232 244 249 240 234 224 220 224 224 221 217 217 221 223 226 226
287 286 285 286 286 285 283 281 279 278 277 277 276 274 272 271 271 271 268 267 268 269 274 273 267 264 260 261 264 268 277 279 268 257 247 230 215 208 209 211 210 210 209 205 204 202 200 198 201 206 207 208 207 208 214 214 214 215 213 218 218 214 213 209 212 219 219 217 215 214 218 219 230 253 255 246 247 236 220 222 224 225 224 222 223 224 225 224
289 287 286 285 285 285 285 283 281 279 277 277 278 278 277 275 275 275 270 266 266 265 263 266 267 262 254 259 265 267 268 266 260 252 242 233 220 210 207 208 207 207 206 201 202 203 199 199 205 207 206 208 209 210 214 218 221 222 219 220 223 223 215 203 211 225 222 214 214 218 221 221 224 245 257 252 251 251 234 223 224 225 226 225 226 226 225 224
291 289 287 285 284 284 284 284 283 280 278 278 278 278 278 277 277 277 275 270 266 265 262 261 265 263 258 260 257 252 252 254 250 242 239 233 219 212 210 206 202 203 203 197 200 203 200 206 211 208 206 208 211 212 215 220 224 224 222 222 226 229 217 199 207 223 222 217 218 220 224 228 225 234 253 257 252 251 248 240 233 229 229 228 227 227 226 225
291 290 288 285 284 283 283 283 283 282 281 279 278 277 277 277 277 278 280 279 268 262 262 259 261 260 255 255 250 245 246 251 251 242 241 236 219 210 210 207 202 203 202 194 193 197 204 212 212 209 208 210 213 214 214 218 221 223 226 228 228 227 213 203 211 216 218 220 221 223 228 234 235 235 248 253 249 250 250 251 249 239 234 231 226 225 224 223
289 288 286 284 282 282 282 282 282 281 281 280 278 277 276 276 277 278 282 285 278 267 262 256 255 254 251 250 248 250 253 254 251 239 236 236 223 207 208 211 202 201 202 197 197 198 207 215 212 208 209 210 212 211 211 217 222 225 227 228 229 222 206 205 214 214 216 220 221 226 233 240 242 239 245 252 251 249 247 244 247 244 238 234 228 224 223 222
286 284 283 282 280 280 280 280 280 280 280 280 279 278 277 276 278 280 283 286 286 279 260 246 245 245 246 248 248 251 251 245 237 230 228 231 226 209 208 211 203 201 205 204 207 207 211 217 209 206 208 206 206 207 209 215 222 225 225 227 229 221 210 213 215 210 215 223 221 222 236 245 243 240 245 254 257 251 245 239 238 239 236 234 230 225 223 224
283 281 280 279 277 277 278 278 278 278 278 278 279 278 277 278 279 281 287 292 291 283 262 250 249 246 243 237 236 234 233 235 232 230 231 229 226 215 208 210 206 206 209 207 210 213 214 218 209 203 208 209 209 213 212 213 220 224 223 226 229 224 218 219 214 207 216 226 224 219 234 248 244 241 243 252 258 252 245 239 233 233 234 230 225 222 221 223
284 281 278 276 275 274 274 277 276 276 277 276 277 277 277 279 279 284 294 297 290 284 276 263 247 237 230 215 212 216 225 238 232 231 233 226 223 215 207 210 210 209 210 206 210 214 211 219 217 204 208 213 212 216 215 212 219 224 223 224 227 228 226 221 212 211 222 229 227 220 226 248 249 240 237 243 251 251 245 241 237 233 233 231 225 222 221 222
286 282 278 275 273 270 269 273 273 273 275 275 275 275 275 277 277 287 299 291 276 278 271 247 214 205 203 196 196 195 203 222 227 232 227 220 218 212 205 208 211 210 206 201 209 215 207 209 215 206 207 213 211 215 214 210 218 224 225 224 223 225 227 221 212 216 229 232 228 221 224 247 254 239 230 231 238 250 247 242 245 242 239 238 233 230 228 226
289 284 280 275 272 269 266 267 269 270 272 271 271 271 269 269 272 283 297 278 252 255 239 206 193 192 194 201 206 204 210 210 219 236 222 211 208 208 209 209 211 210 203 199 205 213 208 208 212 208 206 211 213 214 211 208 215 222 228 226 220 221 223 223 220 223 231 230 228 225 223 242 252 239 232 229 230 246 254 248 251 252 251 249 243 237 234 232
290 286 282 276 270 268 266 265 266 266 266 267 266 264 259 258 263 262 248 256 245 232 218 192 191 199 200 212 222 217 217 207 209 222 218 207 199 203 211 211 211 212 208 211 211 213 218 217 218 215 209 211 215 213 211 210 212 218 228 224 217 219 223 226 228 231 233 229 229 227 217 225 248 237 227 231 234 242 255 259 258 259 262 261 255 247 240 235
289 286 283 277 269 265 264 264 265 263 262 263 260 254 250 243 236 226 221 230 227 224 218 195 190 199 201 212 223 212 206 201 214 221 216 207 203 205 209 206 211 214 213 219 220 220 226 218 217 217 211 210 213 210 211 211 209 213 220 215 214 219 222 227 229 234 238 230 227 228 218 216 244 242 223 225 238 244 249 253 259 268 270 265 262 257 248 241
287 285 283 278 270 263 261 261 262 262 259 256 252 244 239 231 220 221 223 216 216 227 221 202 195 194 189 192 203 205 203 204 217 218 208 199 201 205 204 199 204 209 212 218 219 219 219 208 210 216 212 206 208 209 209 209 207 211 216 214 214 210 212 222 223 228 240 231 227 233 228 220 234 244 233 228 240 247 246 242 253 268 272 271 269 265 257 249
285 283 282 279 272 263 260 258 256 257 255 248 244 233 222 221 223 223 220 210 218 227 212 199 202 204 197 195 201 206 207 213 220 217 209 200 198 202 203 200 197 200 208 210 210 214 216 212 207 211 210 204 203 205 206 209 209 212 216 213 211 202 202 215 216 218 230 232 231 232 229 226 232 241 242 236 235 239 246 248 251 259 269 278 277 263 256 252
284 281 278 276 273 265 259 258 253 248 246 240 235 224 212 221 231 222 212 204 198 204 201 199 206 209 203 200 207 211 212 224 223 214 209 203 201 204 207 207 200 201 207 205 203 206 212 215 209 206 208 205 203 203 203 204 205 209 211 209 210 210 208 213 215 219 225 229 230 227 226 232 238 242 242 241 241 243 250 255 254 256 264 273 273 249 237 239
282 280 276 272 271 266 257 257 253 244 237 232 226 215 211 225 235 221 211 211 209 207 201 195 198 206 208 208 214 217 217 228 221 210 206 202 204 206 208 209 207 207 212 208 205 204 204 212 210 207 206 203 203 206 205 201 202 207 209 211 217 219 220 220 215 222 227 227 225 217 217 232 238 243 242 241 244 246 249 251 257 267 269 270 268 248 229 225
280 278 276 272 267 264 257 253 252 244 232 226 219 212 215 224 228 222 217 215 216 222 219 207 205 216 225 223 227 224 218 223 219 211 210 205 206 208 207 209 208 206 211 212 209 209 214 222 214 208 207 203 203 207 206 203 204 208 209 215 221 220 224 232 232 233 233 232 225 213 216 232 239 245 245 241 247 250 252 254 259 270 275 270 264 252 235 224
280 276 275 273 267 263 257 251 249 242 233 223 216 217 223 224 222 222 224 218 218 223 226 227 225 230 236 232 231 229 225 229 224 215 217 214 214 213 209 210 208 205 208 212 209 208 217 226 214 205 208 207 204 204 203 204 206 204 208 216 221 221 225 232 235 238 236 236 229 217 218 231 238 246 248 247 255 257 257 260 263 268 274 272 262 247 238 236
279 275 271 271 268 264 258 252 247 241 234 224 220 225 228 228 226 225 224 215 215 218 222 230 229 226 232 235 232 227 225 227 220 218 221 217 217 217 211 210 209 207 208 210 213 214 219 228 212 200 206 206 203 203 205 209 210 205 209 215 217 220 228 232 233 228 226 235 234 225 225 230 233 241 244 241 247 250 249 253 256 261 272 275 259 237 233 240
276 273 269 266 264 262 257 253 247 240 235 228 228 231 232 232 231 226 221 218 217 217 221 226 224 217 221 230 228 213 207 212 210 214 220 215 217 216 210 210 210 210 210 210 217 219 218 232 220 201 205 205 200 204 208 211 213 213 215 213 210 213 220 225 229 229 226 229 234 233 233 233 233 233 229 224 229 236 238 240 242 251 267 272 253 239 236 240
276 274 271 264 261 259 253 249 245 239 234 232 232 235 235 234 233 227 226 229 228 225 225 225 225 224 220 221 219 201 199 207 203 205 214 211 211 212 208 210 209 209 210 209 216 219 212 228 226 201 203 204 200 205 209 208 209 214 220 217 214 218 220 218 223 230 233 234 235 236 235 232 233 233 228 225 227 231 238 243 245 250 263 271 261 249 242 237
277 275 271 265 261 258 252 247 242 236 233 234 235 238 239 240 239 236 235 236 235 232 233 233 233 233 227 221 223 214 207 212 207 207 213 207 208 217 210 210 209 208 209 208 214 219 212 221 229 205 197 203 203 205 208 207 204 207 214 215 214 217 219 222 225 226 232 240 238 237 240 233 230 232 232 232 236 241 248 252 251 251 256 265 266 257 244 240
278 278 272 265 260 259 255 249 243 238 238 239 240 240 241 242 241 240 241 241 240 236 235 237 235 234 232 227 226 224 220 224 222 220 222 215 213 220 209 206 208 208 208 209 212 216 212 214 224 213 197 204 210 209 211 213 209 206 209 212 213 211 213 222 227 225 228 235 236 238 247 238 230 227 229 233 238 241 245 249 250 253 252 255 263 258 246 245
280 277 272 268 264 260 256 253 249 246 244 242 242 241 242 242 241 241 241 240 240 238 235 235 234 232 234 231 227 227 228 232 231 227 229 225 216 216 211 205 207 207 209 212 213 214 215 215 221 221 211 211 216 215 214 216 216 215 214 214 216 216 216 220 223 222 225 231 237 239 243 240 235 228 224 233 239 237 239 245 248 250 248 249 255 252 243 248
283 277 274 273 271 266 262 259 254 250 249 248 247 246 245 244 245 245 241 236 235 236 234 233 233 232 232 232 229 228 229 234 236 232 231 232 223 221 226 212 202 202 208 214 215 212 212 214 217 223 224 221 220 219 218 216 216 221 221 217 217 218 220 224 226 226 228 231 232 235 240 236 231 228 229 234 235 230 232 242 246 243 242 246 249 244 242 250
288 284 281 277 273 269 263 261 259 255 253 254 254 251 248 246 245 243 238 233 231 232 231 231 231 230 229 229 229 228 227 232 239 238 234 237 235 228 228 219 197 192 206 213 210 206 206 206 209 218 224 220 219 217 212 210 213 221 222 219 219 220 221 225 227 228 232 232 229 231 237 231 226 230 227 209 205 216 229 245 247 241 241 246 246 239 238 247
290 288 286 280 274 267 257 251 253 257 256 256 257 255 252 250 246 240 235 231 227 228 231 231 229 227 226 227 229 229 228 229 235 239 234 234 235 230 228 221 203 197 211 208 195 195 205 207 207 212 216 211 213 212 206 204 209 218 222 221 221 221 220 222 225 227 231 231 230 232 235 231 229 230 222 210 215 228 240 252 250 244 247 247 239 232 233 243
288 285 284 281 269 262 259 253 251 255 258 261 265 264 258 255 252 245 240 234 229 227 230 230 225 223 222 221 224 226 226 226 228 230 227 224 223 222 225 223 212 204 210 206 197 196 209 214 210 214 221 221 218 217 212 211 214 217 220 222 223 222 222 223 225 228 229 228 231 235 236 234 229 225 222 225 232 237 239 243 247 252 256 247 233 233 242 251
285 282 278 273 263 252 250 251 247 248 251 256 265 265 256 255 255 249 243 238 233 230 231 230 222 218 217 216 220 225 225 225 227 229 230 227 220 218 224 224 218 215 214 214 212 208 213 219 214 217 226 229 228 226 222 222 224 223 221 221 221 222 224 226 227 229 229 230 234 235 233 231 229 227 229 229 230 234 235 236 241 250 257 255 246 244 249 254
276 274 266 262 261 245 227 227 231 238 246 251 258 260 258 257 254 249 248 243 235 229 229 231 225 221 220 218 221 227 226 227 230 230 231 231 227 231 234 227 222 221 219 217 218 216 219 224 220 221 229 232 232 233 230 229 229 229 227 224 222 222 223 226 229 230 231 234 237 235 230 229 229 229 231 229 228 236 239 239 243 248 254 258 252 248 250 254
271 269 264 259 260 255 248 246 246 250 253 253 254 256 257 258 253 250 253 248 239 230 228 230 228 226 227 225 224 228 225 225 229 228 228 229 230 233 235 231 225 221 218 219 219 216 221 226 224 227 235 236 235 236 235 234 233 231 231 231 229 227 225 227 230 232 233 236 239 239 236 235 231 229 231 234 237 243 247 245 244 245 248 251 249 249 254 256
271 266 264 262 261 262 263 263 261 260 258 254 255 255 254 255 256 254 248 241 239 231 226 231 233 231 232 229 227 230 229 226 228 226 221 221 224 229 232 233 228 218 215 218 219 218 222 224 221 228 238 239 236 235 236 236 235 234 233 233 232 232 229 229 230 231 232 235 237 239 240 239 232 229 233 236 238 243 246 245 244 247 249 249 249 252 256 256
273 268 268 267 266 264 264 264 263 264 261 257 258 259 255 252 251 249 242 234 229 220 221 235 234 228 227 222 221 227 229 226 228 228 221 216 214 215 219 222 219 216 216 213 211 217 224 223 221 228 239 240 234 233 234 235 236 236 234 230 230 231 232 231 230 229 229 232 234 235 237 238 234 232 234 235 236 238 240 242 246 251 251 249 248 251 254 253
279 276 275 273 269 263 260 261 261 261 261 259 257 255 252 243 239 244 246 241 232 226 231 236 225 217 218 215 215 223 223 222 225 227 226 224 220 215 211 205 201 206 213 213 212 216 221 223 222 223 238 245 238 234 234 234 236 236 232 229 228 229 231 232 232 230 229 231 232 232 235 237 236 232 232 234 235 236 238 242 243 243 244 243 244 247 251 251
Height
3172 3171 3170 3170 3169 3168 3168 3167 3167 3166 3166 3166 3165 3165 3164 3164 3163 3163 3162 3161 3161 3160 3160 3159 3159 3158 3157 3157 3158 3158 3158 3158 3159 3160 3161 3163 3163 3165 3166 3167 3169 3171 3173 3175 3177 3178 3179 3180 3181 3183 3183 3184 3184 3184 3184 3184 3185 3186 3188 3188 3188 3188 3189 3188 3189 3189 3190 3189 3189 3188 3188 3189 3189 3189 3189 3189 3190 3191 3191 3192 3193 3193 3194 3195 3196 3197 3198 3198
3171 3170 3169 3168 3168 3167 3167 3166 3165 3165 3164 3164 3164 3163 3163 3163 3162 3161 3161 3160 3159 3159 3158 3158 3158 3157 3156 3156 3156 3156 3156 3157 3157 3158 3159 3160 3161 3163 3164 3165 3167 3169 3171 3173 3175 3177 3178 3179 3180 3182 3183 3183 3184 3184 3184 3184 3184 3186 3188 3188 3188 3188 3188 3189 3189 3189 3190 3190 3189 3188 3189 3189 3190 3190 3190 3190 3190 3191 3191 3192 3193 3193 3194 3195 3195 3197 3199 3199
3169 3169 3168 3167 3167 3166 3165 3165 3164 3163 3163 3162 3162 3162 3161 3161 3161 3160 3159 3159 3158 3157 3157 3157 3156 3156 3156 3155 3155 3154 3154 3155 3156 3156 3156 3158 3159 3160 3162 3163 3165 3167 3170 3172 3173 3175 3176 3177 3179 3181 3182 3183 3183 3183 3184 3184 3184 3185 3187 3188 3188 3188 3188 3189 3189 3189 3189 3190 3189 3188 3189 3189 3190 3190 3190 3191 3191 3191 3192 3192 3193 3193 3194 3195 3195 3197 3198 3200
3168 3167 3167 3166 3165 3165 3164 3164 3163 3162 3162 3161 3160 3160 3160 3159 3159 3159 3158 3157 3157 3156 3156 3155 3155 3155 3155 3154 3154 3153 3153 3155 3155 3153 3154 3155 3157 3158 3159 3161 3163 3165 3168 3169 3171 3172 3174 3175 3178 3180 3181 3182 3182 3182 3183 3183 3184 3185 3187 3188 3188 3188 3188 3188 3189 3189 3189 3189 3189 3189 3188 3189 3190 3189 3190 3191 3192 3192 3193 3193 3193 3193 3194 3195 3196 3197 3198 3200
3166 3166 3165 3165 3164 3164 3163 3162 3162 3161 3160 3160 3159 3158 3158 3158 3157 3157 3156 3156 3155 3155 3154 3154 3153 3153 3153 3153 3153 3152 3153 3154 3153 3151 3152 3153 3155 3156 3157 3159 3161 3163 3165 3167 3169 3171 3172 3174 3176 3178 3179 3181 3182 3182 3182 3183 3184 3185 3186 3187 3188 3188 3188 3188 3188 3188 3188 3188 3188 3188 3188 3189 3189 3190 3190 3191 3192 3193 3193 3193 3193 3193 3194 3195 3196 3197 3198 3200
3165 3164 3164 3163 3162 3162 3161 3161 3160 3160 3159 3158 3158 3157 3157 3156 3156 3155 3155 3154 3154 3153 3153 3152 3152 3152 3152 3152 3152 3152 3152 3153 3151 3149 3150 3151 3153 3154 3155 3157 3159 3161 3163 3165 3167 3169 3171 3173 3175 3176 3178 3180 3181 3181 3183 3183 3183 3185 3186 3186 3187 3187 3188 3188 3187 3187 3187 3187 3188 3188 3188 3189 3189 3190 3190 3191 3193 3193 3193 3193 3193 3193 3194 3195 3197 3198 3198 3200
3163 3162 3162 3161 3161 3160 3160 3159 3158 3158 3157 3157 3156 3156 3155 3155 3155 3154 3154 3153 3152 3152 3151 3151 3151 3150 3150 3150 3150 3150 3150 3151 3149 3148 3149 3150 3151 3152 3153 3155 3157 3159 3161 3163 3165 3168 3170 3171 3173 3176 3177 3179 3180 3181 3183 3183 3182 3184 3186 3186 3186 3186 3186 3187 3186 3186 3186 3187 3188 3188 3188 3189 3189 3191 3191 3191 3192 3192 3192 3193 3194 3194 3194 3195 3196 3198 3199 3200
3161 3161 3160 3160 3159 3159 3158 3157 3157 3156 3156 3155 3155 3154 3154 3154 3153 3153 3152 3152 3151 3151 3150 3150 3149 3149 3149 3149 3149 3148 3148 3148 3147 3146 3147 3148 3149 3150 3152 3153 3155 3157 3159 3161 3164 3167 3168 3170 3172 3175 3176 3178 3180 3180 3182 3183 3182 3182 3184 3185 3185 3185 3185 3186 3185 3185 3185 3187 3187 3187 3188 3188 3190 3191 3191 3192 3192 3192 3192 3193 3193 3194 3195 3195 3196 3198 3199 3200
3159 3159 3158 3158 3157 3157 3156 3155 3155 3154 3154 3153 3153 3153 3153 3152 3152 3151 3151 3150 3150 3149 3149 3148 3148 3147 3147 3147 3147 3146 3146 3146 3145 3145 3146 3146 3147 3149 3150 3151 3153 3155 3157 3159 3162 3164 3166 3168 3171 3174 3176 3178 3179 3180 3181 3182 3181 3181 3183 3184 3184 3184 3184 3184 3184 3184 3184 3186 3186 3187 3188 3188 3190 3191 3192 3192 3192 3192 3193 3193 3194 3194 3195 3196 3196 3197 3199 3200
3157 3157 3156 3156 3155 3155 3154 3154 3153 3152 3152 3151 3151 3151 3151 3150 3150 3150 3149 3149 3149 3148 3148 3147 3147 3146 3146 3145 3145 3145 3144 3144 3144 3144 3144 3145 3145 3147 3148 3149 3151 3153 3155 3157 3159 3161 3164 3167 3170 3173 3175 3177 3178 3179 3179 3180 3180 3180 3182 3183 3183 3183 3183 3183 3183 3183 3184 3185 3185 3187 3188 3188 3189 3190 3192 3192 3191 3192 3192 3193 3194 3194 3195 3196 3197 3197 3198 3200
3155 3154 3154 3154 3153 3153 3152 3152 3151 3150 3150 3149 3149 3149 3149 3148 3148 3148 3148 3147 3147 3147 3146 3146 3145 3145 3144 3144 3143 3143 3142 3142 3142 3142 3143 3143 3143 3144 3146 3147 3149 3151 3153 3155 3158 3160 3163 3166 3169 3171 3172 3174 3176 3177 3178 3179 3179 3179 3180 3181 3181 3181 3181 3181 3182 3182 3183 3183 3184 3187 3187 3187 3188 3189 3191 3191 3190 3191 3192 3193 3193 3194 3195 3196 3197 3197 3198 3199
3153 3152 3152 3151 3151 3150 3150 3150 3149 3148 3148 3147 3147 3147 3146 3146 3146 3146 3146 3145 3145 3145 3145 3144 3144 3143 3142 3142 3142 3141 3140 3140 3140 3140 3141 3141 3142 3143 3144 3146 3147 3149 3152 3154 3156 3159 3161 3164 3165 3168 3171 3172 3175 3176 3176 3176 3178 3178 3179 3180 3180 3180 3180 3180 3181 3181 3181 3182 3183 3186 3187 3186 3186 3188 3190 3189 3190 3191 3191 3192 3193 3194 3195 3195 3196 3197 3198 3199
3150 3150 3149 3149 3148 3148 3148 3147 3147 3146 3145 3145 3145 3145 3144 3144 3144 3143 3143 3143 3143 3143 3143 3143 3142 3141 3140 3140 3140 3139 3138 3138 3138 3138 3139 3140 3140 3141 3143 3145 3146 3148 3150 3152 3154 3156 3158 3160 3163 3167 3169 3170 3174 3175 3174 3175 3176 3177 3178 3179 3180 3180 3179 3179 3179 3180 3181 3182 3182 3184 3186 3185 3185 3187 3188 3188 3189 3190 3190 3191 3192 3193 3194 3195 3196 3196 3197 3198
3148 3147 3147 3146 3146 3145 3145 3145 3145 3144 3143 3143 3142 3142 3142 3142 3141 3141 3141 3141 3141 3141 3141 3140 3140 3139 3138 3138 3138 3137 3136 3135 3136 3136 3137 3138 3138 3140 3141 3143 3145 3146 3148 3150 3151 3153 3155 3158 3161 3165 3166 3168 3172 3172 3173 3174 3175 3176 3178 3178 3178 3179 3178 3177 3177 3178 3180 3180 3181 3183 3185 3184 3185 3186 3186 3187 3188 3189 3190 3191 3191 3192 3193 3194 3195 3196 3197 3197
3145 3145 3144 3144 3143 3142 3142 3142 3142 3142 3141 3140 3140 3140 3140 3139 3139 3139 3139 3139 3139 3139 3139 3138 3138 3137 3136 3136 3136 3134 3134 3133 3133 3134 3135 3136 3137 3138 3140 3141 3143 3144 3146 3147 3149 3151 3154 3156 3159 3161 3164 3167 3169 3170 3172 3174 3174 3175 3176 3175 3175 3176 3176 3176 3176 3177 3178 3179 3180 3183 3184 3183 3185 3185 3185 3186 3187 3188 3189 3190 3190 3191 3192 3193 3194 3195 3196 3196
3143 3142 3142 3141 3140 3139 3139 3139 3139 3139 3138 3138 3138 3138 3138 3137 3137 3137 3136 3136 3136 3136 3136 3136 3136 3135 3134 3134 3134 3133 3132 3132 3132 3132 3133 3134 3135 3136 3138 3139 3141 3143 3144 3146 3148 3150 3153 3155 3157 3160 3163 3165 3166 3169 3172 3172 3172 3173 3173 3171 3171 3173 3175 3175 3174 3176 3177 3177 3179 3181 3183 3183 3184 3184 3184 3185 3186 3187 3188 3189 3189 3190 3191 3191 3192 3193 3194 3195
3141 3140 3139 3138 3137 3136 3136 3136 3136 3136 3135 3135 3135 3135 3135 3135 3135 3134 3134 3134 3134 3133 3133 3133 3133 3133 3132 3131 3131 3131 3131 3131 3131 3130 3131 3132 3133 3134 3136 3138 3139 3141 3143 3145 3146 3149 3151 3153 3156 3158 3160 3162 3164 3168 3168 3167 3168 3169 3170 3169 3169 3170 3172 3173 3173 3174 3176 3176 3178 3180 3181 3182 3182 3182 3182 3184 3185 3186 3187 3188 3188 3189 3190 3190 3191 3192 3193 3194
3138 3137 3137 3136 3135 3134 3133 3133 3133 3132 3132 3132 3132 3133 3132 3132 3132 3131 3131 3131 3131 3131 3130 3130 3131 3131 3131 3129 3129 3130 3129 3129 3129 3129 3130 3130 3131 3133 3134 3136 3138 3140 3142 3143 3145 3147 3149 3152 3155 3156 3158 3159 3161 3164 3163 3162 3164 3166 3168 3168 3168 3169 3171 3172 3172 3173 3174 3175 3177 3179 3180 3181 3181 3180 3181 3182 3183 3184 3185 3186 3187 3188 3188 3189 3190 3190 3191 3193
3135 3135 3134 3133 3132 3131 3131 3131 3130 3129 3129 3129 3129 3129 3129 3129 3129 3128 3128 3128 3128 3128 3128 3127 3127 3129 3129 3127 3128 3128 3127 3127 3127 3128 3128 3129 3130 3131 3133 3135 3136 3138 3140 3142 3144 3145 3147 3151 3152 3152 3153 3155 3157 3159 3160 3162 3164 3164 3166 3166 3167 3167 3169 3171 3172 3172 3172 3174 3176 3178 3179 3180 3180 3179 3179 3180 3182 3182 3183 3184 3185 3186 3186 3187 3188 3189 3190 3191
3132 3132 3131 3131 3130 3129 3128 3128 3127 3126 3126 3126 3126 3126 3126 3126 3126 3125 3124 3125 3125 3125 3125 3124 3123 3124 3125 3126 3126 3126 3124 3124 3125 3126 3126 3126 3128 3129 3131 3133 3135 3137 3139 3141 3143 3143 3146 3148 3146 3146 3150 3153 3155 3158 3161 3163 3163 3164 3165 3165 3165 3165 3166 3169 3171 3170 3171 3173 3175 3177 3178 3179 3180 3178 3177 3178 3179 3180 3181 3182 3183 3184 3184 3185 3186 3187 3188 3190
3129 3129 3128 3128 3127 3126 3125 3125 3124 3124 3123 3123 3123 3124 3123 3123 3123 3121 3119 3121 3122 3121 3121 3121 3120 3120 3122 3123 3123 3122 3122 3121 3122 3124 3124 3124 3126 3127 3129 3130 3133 3135 3137 3140 3142 3142 3144 3143 3142 3145 3150 3153 3156 3158 3160 3162 3163 3163 3164 3164 3164 3164 3164 3167 3169 3168 3170 3172 3173 3175 3176 3177 3177 3178 3176 3176 3177 3178 3179 3180 3181 3182 3182 3183 3184 3185 3186 3188
3126 3126 3126 3125 3124 3123 3122 3122 3121 3121 3121 3121 3120 3121 3121 3120 3120 3118 3116 3116 3117 3117 3117 3117 3117 3116 3118 3119 3118 3119 3119 3119 3120 3122 3122 3122 3124 3125 3127 3128 3131 3133 3135 3138 3140 3140 3140 3139 3141 3146 3149 3153 3155 3157 3159 3160 3161 3162 3162 3162 3162 3162 3164 3166 3168 3168 3169 3170 3172 3173 3173 3174 3175 3176 3175 3174 3175 3176 3177 3177 3178 3179 3180 3180 3181 3183 3184 3185
3124 3123 3123 3122 3122 3120 3120 3119 3118 3118 3118 3118 3118 3118 3118 3117 3117 3116 3115 3113 3112 3113 3113 3113 3113 3113 3115 3115 3114 3115 3116 3117 3118 3118 3119 3119 3121 3124 3125 3126 3129 3132 3133 3134 3135 3136 3136 3137 3141 3146 3148 3150 3153 3154 3156 3158 3159 3160 3160 3160 3159 3160 3163 3165 3166 3167 3168 3169 3171 3171 3171 3172 3173 3174 3173 3172 3173 3174 3174 3175 3176 3176 3177 3177 3179 3180 3182 3182
3120 3120 3120 3119 3119 3118 3117 3116 3115 3115 3115 3115 3115 3115 3115 3115 3114 3114 3113 3111 3109 3108 3109 3109 3109 3110 3111 3111 3111 3112 3113 3114 3114 3114 3115 3116 3118 3121 3123 3124 3127 3129 3130 3131 3132 3134 3136 3137 3140 3144 3145 3147 3149 3151 3154 3156 3156 3157 3158 3158 3158 3158 3161 3164 3165 3167 3167 3168 3169 3170 3171 3170 3171 3171 3170 3170 3171 3171 3172 3173 3173 3174 3174 3175 3176 3177 3179 3179
3117 3117 3116 3116 3116 3115 3114 3113 3113 3112 3112 3113 3113 3113 3113 3112 3112 3112 3111 3110 3107 3105 3105 3106 3106 3106 3107 3108 3109 3110 3110 3111 3111 3111 3111 3113 3116 3118 3120 3122 3124 3126 3127 3129 3130 3132 3135 3135 3136 3140 3142 3143 3147 3148 3150 3153 3154 3154 3155 3156 3157 3158 3160 3162 3164 3165 3166 3166 3166 3169 3169 3167 3167 3168 3168 3169 3168 3168 3169 3170 3171 3172 3172 3173 3173 3174 3175 3176
3113 3113 3113 3113 3113 3113 3112 3110 3110 3109 3109 3110 3110 3110 3111 3110 3110 3110 3110 3109 3106 3103 3102 3102 3102 3102 3103 3105 3106 3107 3109 3108 3108 3108 3108 3111 3113 3115 3118 3120 3121 3124 3126 3127 3129 3130 3132 3132 3133 3136 3139 3141 3144 3146 3147 3151 3152 3151 3152 3154 3157 3158 3159 3160 3162 3163 3163 3163 3164 3167 3167 3165 3164 3164 3165 3167 3165 3165 3167 3167 3168 3170 3170 3170 3171 3171 3172 3173
3110 3110 3110 3110 3109 3110 3110 3108 3107 3106 3107 3108 3108 3108 3109 3108 3109 3109 3110 3108 3102 3099 3098 3098 3099 3099 3100 3102 3103 3105 3106 3105 3105 3105 3106 3108 3110 3113 3116 3117 3118 3120 3123 3125 3125 3124 3126 3129 3129 3132 3136 3139 3140 3142 3145 3148 3149 3149 3151 3153 3154 3156 3157 3158 3160 3161 3161 3162 3163 3165 3166 3165 3162 3161 3163 3164 3163 3162 3163 3164 3165 3166 3167 3167 3168 3169 3170 3170
3107 3106 3106 3107 3106 3106 3107 3106 3104 3104 3105 3105 3105 3106 3106 3106 3108 3108 3110 3107 3098 3094 3095 3095 3096 3097 3098 3100 3101 3102 3103 3103 3104 3103 3103 3105 3108 3110 3113 3115 3116 3118 3120 3120 3120 3120 3122 3124 3125 3128 3133 3135 3136 3139 3143 3146 3147 3148 3150 3151 3152 3154 3156 3157 3158 3158 3159 3159 3159 3161 3164 3163 3159 3159 3161 3161 3160 3160 3160 3161 3162 3163 3164 3165 3166 3167 3168 3169
3103 3102 3102 3104 3103 3103 3103 3102 3101 3102 3103 3103 3104 3104 3104 3105 3106 3107 3110 3105 3095 3092 3093 3093 3095 3096 3097 3098 3099 3099 3100 3101 3101 3100 3100 3102 3105 3107 3109 3112 3115 3117 3117 3117 3119 3120 3119 3121 3123 3125 3128 3131 3134 3138 3141 3143 3145 3148 3149 3149 3151 3153 3154 3155 3155 3155 3155 3153 3153 3156 3160 3159 3155 3155 3157 3157 3156 3157 3157 3159 3159 3160 3162 3162 3163 3165 3166 3167
3099 3098 3098 3099 3100 3099 3099 3099 3098 3099 3101 3101 3102 3102 3102 3103 3104 3106 3106 3100 3092 3091 3091 3091 3093 3094 3095 3096 3097 3097 3098 3098 3098 3098 3099 3100 3102 3104 3107 3111 3114 3115 3115 3115 3117 3119 3118 3119 3121 3122 3124 3129 3133 3136 3138 3140 3143 3147 3148 3149 3150 3151 3152 3153 3152 3153 3150 3145 3148 3153 3154 3156 3153 3149 3152 3152 3152 3155 3157 3157 3157 3158 3159 3160 3161 3161 3163 3164
3095 3094 3093 3094 3096 3096 3096 3096 3095 3097 3098 3098 3099 3101 3100 3102 3103 3101 3096 3090 3090 3090 3089 3090 3091 3091 3094 3095 3096 3096 3096 3096 3096 3096 3096 3098 3100 3102 3104 3107 3109 3112 3113 3112 3113 3116 3116 3116 3117 3118 3121 3126 3130 3132 3135 3137 3141 3144 3145 3147 3149 3149 3150 3150 3150 3152 3146 3141 3147 3151 3151 3153 3149 3145 3148 3150 3150 3153 3155 3156 3156 3155 3155 3157 3158 3159 3160 3161
3091 3090 3089 3089 3091 3093 3092 3092 3093 3094 3095 3096 3097 3097 3099 3100 3097 3092 3087 3086 3088 3087 3087 3089 3089 3089 3092 3093 3094 3095 3095 3095 3094 3094 3094 3095 3096 3098 3099 3101 3103 3105 3106 3107 3109 3112 3113 3112 3114 3116 3117 3121 3126 3128 3131 3133 3137 3140 3142 3144 3144 3144 3146 3146 3145 3145 3143 3142 3146 3148 3147 3147 3143 3143 3146 3147 3149 3152 3153 3154 3155 3155 3154 3153 3155 3156 3157 3158
3087 3086 3086 3085 3086 3089 3089 3088 3090 3091 3091 3093 3094 3094 3098 3096 3086 3081 3083 3085 3084 3082 3083 3086 3086 3088 3089 3090 3091 3092 3092 3093 3092 3092 3092 3093 3094 3095 3096 3097 3099 3100 3101 3104 3106 3107 3109 3110 3112 3113 3112 3115 3119 3122 3124 3127 3131 3134 3136 3138 3138 3136 3139 3141 3140 3140 3140 3141 3143 3145 3145 3141 3139 3142 3144 3145 3147 3149 3151 3151 3152 3153 3153 3151 3151 3153 3154 3154
3083 3082 3082 3081 3082 3084 3085 3085 3086 3088 3088 3089 3090 3092 3093 3085 3077 3078 3081 3081 3081 3081 3081 3083 3084 3086 3087 3087 3088 3088 3089 3090 3090 3091 3091 3090 3091 3092 3093 3095 3097 3098 3100 3102 3102 3102 3103 3103 3104 3106 3107 3109 3112 3116 3120 3124 3127 3128 3131 3135 3133 3131 3132 3133 3134 3135 3136 3137 3139 3142 3141 3138 3137 3138 3139 3142 3144 3146 3148 3148 3148 3149 3149 3149 3149 3149 3151 3151
3080 3078 3077 3077 3078 3079 3081 3081 3082 3084 3085 3084 3086 3087 3081 3074 3074 3078 3078 3078 3080 3080 3080 3081 3082 3084 3085 3085 3085 3085 3086 3087 3087 3088 3088 3087 3087 3087 3089 3091 3093 3096 3098 3097 3097 3099 3099 3097 3098 3102 3105 3107 3109 3113 3119 3122 3123 3125 3129 3130 3127 3128 3130 3130 3129 3131 3133 3134 3133 3134 3135 3135 3136 3136 3136 3139 3140 3142 3144 3145 3145 3145 3145 3147 3147 3147 3148 3149
3076 3075 3073 3073 3074 3075 3076 3077 3078 3080 3080 3081 3081 3076 3068 3068 3073 3076 3075 3076 3077 3077 3079 3079 3079 3080 3081 3081 3082 3082 3082 3083 3085 3085 3085 3084 3084 3083 3085 3087 3089 3091 3093 3094 3095 3096 3096 3096 3098 3100 3102 3104 3106 3110 3115 3117 3118 3121 3123 3121 3122 3128 3131 3129 3128 3130 3132 3129 3125 3127 3130 3133 3134 3132 3133 3136 3137 3139 3140 3141 3142 3142 3142 3143 3144 3144 3145 3146
3072 3071 3070 3069 3069 3070 3071 3072 3074 3075 3075 3077 3073 3064 3062 3066 3070 3072 3073 3073 3073 3074 3076 3076 3075 3075 3076 3076 3078 3078 3079 3080 3081 3081 3081 3081 3080 3080 3081 3083 3085 3087 3090 3092 3093 3093 3094 3094 3095 3097 3099 3102 3105 3108 3111 3113 3115 3116 3116 3117 3123 3129 3129 3127 3124 3125 3128 3126 3121 3122 3125 3128 3129 3127 3129 3133 3134 3136 3137 3138 3140 3140 3140 3140 3141 3142 3143 3144
3067 3067 3067 3066 3066 3066 3067 3068 3069 3070 3071 3070 3063 3058 3061 3064 3065 3068 3070 3069 3070 3072 3072 3072 3071 3071 3072 3072 3073 3074 3075 3076 3076 3077 3078 3077 3076 3076 3078 3080 3082 3084 3087 3090 3090 3091 3092 3092 3091 3093 3096 3099 3103 3106 3108 3109 3111 3112 3113 3117 3120 3120 3121 3122 3120 3118 3121 3121 3119 3119 3120 3123 3124 3123 3126 3130 3131 3133 3135 3136 3138 3138 3138 3138 3139 3140 3141 3142
3062 3063 3062 3062 3062 3062 3063 3063 3064 3065 3065 3061 3057 3055 3057 3059 3060 3063 3065 3066 3068 3069 3068 3068 3068 3068 3069 3069 3070 3071 3072 3072 3073 3074 3074 3074 3074 3073 3075 3077 3079 3081 3085 3087 3088 3089 3090 3090 3088 3089 3094 3097 3099 3101 3100 3102 3106 3109 3112 3114 3114 3113 3115 3117 3116 3116 3117 3115 3115 3117 3115 3116 3119 3121 3124 3126 3128 3130 3132 3133 3135 3136 3136 3135 3136 3138 3138 3139
3057 3058 3057 3057 3058 3057 3058 3058 3059 3059 3057 3054 3053 3053 3054 3055 3056 3058 3060 3063 3064 3064 3064 3065 3066 3065 3065 3066 3067 3068 3069 3069 3070 3071 3071 3072 3072 3071 3073 3075 3076 3079 3082 3084 3086 3087 3088 3089 3087 3087 3091 3093 3092 3091 3092 3095 3099 3103 3105 3107 3107 3108 3112 3113 3112 3114 3115 3112 3112 3112 3109 3109 3115 3119 3121 3123 3126 3128 3129 3131 3132 3133 3134 3134 3134 3135 3136 3137
3053 3053 3052 3052 3053 3053 3053 3053 3052 3053 3051 3049 3050 3050 3051 3052 3052 3053 3055 3058 3059 3060 3060 3061 3062 3062 3062 3063 3064 3064 3066 3066 3067 3068 3068 3069 3069 3069 3070 3072 3074 3076 3079 3080 3082 3083 3085 3086 3086 3085 3086 3087 3086 3087 3090 3093 3095 3097 3100 3101 3103 3105 3108 3108 3105 3108 3112 3109 3108 3108 3105 3106 3112 3115 3117 3120 3123 3125 3127 3129 3129 3130 3132 3133 3132 3132 3133 3135
3049 3049 3048 3048 3048 3049 3048 3047 3047 3048 3047 3045 3046 3046 3047 3047 3046 3048 3051 3053 3055 3055 3055 3056 3056 3057 3058 3059 3060 3061 3062 3063 3063 3065 3065 3066 3067 3068 3068 3069 3070 3073 3076 3077 3078 3081 3083 3084 3084 3083 3083 3084 3085 3086 3089 3091 3094 3096 3096 3098 3101 3102 3103 3102 3100 3104 3106 3105 3106 3107 3103 3104 3110 3112 3113 3116 3119 3122 3124 3126 3127 3128 3129 3130 3130 3130 3131 3132
3044 3044 3044 3044 3043 3044 3044 3042 3043 3044 3042 3041 3042 3042 3043 3042 3042 3043 3046 3049 3050 3050 3051 3050 3050 3052 3054 3055 3057 3057 3058 3059 3059 3061 3062 3063 3064 3066 3066 3066 3067 3070 3073 3074 3076 3078 3080 3080 3081 3081 3081 3082 3084 3085 3087 3089 3091 3092 3091 3093 3096 3096 3097 3098 3099 3103 3102 3099 3105 3104 3097 3100 3108 3110 3111 3114 3116 3118 3121 3123 3124 3126 3126 3127 3127 3128 3129 3130
3039 3039 3040 3040 3039 3040 3040 3039 3040 3041 3039 3039 3039 3038 3038 3038 3038 3039 3041 3043 3045 3046 3046 3046 3046 3048 3050 3052 3053 3053 3055 3055 3055 3056 3059 3060 3061 3062 3063 3064 3065 3067 3070 3070 3071 3073 3074 3075 3077 3078 3078 3080 3080 3081 3082 3084 3086 3085 3085 3088 3089 3091 3095 3095 3098 3101 3096 3094 3100 3097 3091 3098 3107 3108 3109 3111 3114 3116 3118 3120 3121 3122 3123 3124 3125 3126 3127 3128
3035 3035 3036 3036 3035 3035 3035 3035 3037 3037 3036 3036 3035 3034 3034 3033 3034 3035 3037 3038 3041 3042 3042 3042 3043 3044 3045 3048 3049 3049 3051 3051 3052 3053 3055 3056 3058 3059 3060 3061 3063 3065 3065 3065 3066 3067 3069 3071 3072 3072 3071 3072 3073 3072 3073 3077 3081 3081 3082 3083 3085 3087 3090 3091 3094 3093 3087 3089 3095 3090 3088 3098 3105 3106 3107 3109 3111 3114 3115 3117 3118 3119 3120 3121 3122 3123 3124 3125
3031 3031 3032 3033 3032 3031 3030 3032 3032 3032 3032 3032 3030 3029 3030 3030 3031 3032 3032 3033 3035 3038 3039 3039 3039 3040 3041 3043 3045 3045 3047 3048 3049 3050 3051 3053 3056 3057 3057 3058 3059 3061 3061 3062 3063 3065 3067 3067 3068 3067 3066 3066 3068 3069 3072 3074 3076 3077 3078 3080 3081 3083 3085 3087 3087 3083 3082 3088 3090 3086 3090 3097 3099 3101 3104 3106 3108 3111 3113 3116 3117 3117 3117 3118 3120 3121 3122 3122
3028 3028 3029 3029 3028 3027 3028 3029 3029 3028 3028 3028 3026 3026 3027 3027 3028 3029 3029 3029 3031 3033 3035 3035 3035 3036 3037 3039 3041 3042 3043 3044 3045 3046 3048 3050 3053 3054 3054 3054 3056 3058 3058 3060 3062 3063 3064 3063 3063 3065 3065 3065 3067 3069 3071 3072 3072 3073 3075 3076 3078 3080 3082 3082 3078 3078 3082 3085 3082 3084 3091 3094 3094 3098 3101 3103 3105 3107 3110 3113 3114 3115 3116 3116 3116 3118 3119 3120
3024 3024 3025 3025 3024 3024 3024 3024 3023 3022 3022 3022 3022 3022 3023 3023 3025 3026 3026 3026 3028 3030 3031 3030 3031 3032 3034 3036 3038 3038 3040 3041 3041 3042 3044 3047 3049 3050 3051 3052 3054 3055 3057 3059 3059 3060 3061 3060 3060 3062 3062 3063 3065 3067 3068 3069 3069 3071 3072 3072 3074 3076 3077 3076 3074 3077 3081 3079 3077 3084 3088 3088 3091 3096 3098 3100 3103 3104 3106 3109 3111 3113 3115 3114 3114 3114 3116 3117
3020 3020 3021 3021 3020 3019 3020 3019 3019 3019 3019 3019 3018 3019 3020 3020 3021 3023 3024 3024 3025 3026 3027 3026 3027 3029 3031 3033 3034 3035 3036 3037 3037 3039 3041 3043 3045 3047 3048 3050 3051 3052 3054 3056 3056 3057 3057 3057 3058 3060 3060 3060 3062 3063 3064 3065 3066 3067 3068 3069 3071 3071 3072 3073 3073 3075 3077 3076 3077 3083 3083 3083 3087 3091 3093 3097 3100 3101 3103 3105 3107 3110 3111 3111 3111 3111 3112 3113
3017 3017 3016 3016 3015 3015 3016 3016 3016 3015 3015 3016 3015 3015 3017 3017 3018 3019 3020 3020 3021 3022 3024 3025 3026 3027 3028 3029 3030 3031 3032 3034 3034 3036 3037 3039 3041 3043 3045 3046 3048 3049 3051 3052 3053 3054 3054 3054 3055 3057 3057 3056 3057 3059 3060 3061 3061 3062 3063 3065 3067 3067 3068 3068 3069 3072 3073 3073 3076 3080 3078 3078 3082 3087 3090 3093 3096 3098 3100 3100 3102 3105 3107 3108 3108 3108 3109 3109
3013 3012 3012 3011 3011 3012 3012 3012 3012 3011 3011 3012 3012 3013 3014 3014 3015 3014 3014 3015 3017 3019 3020 3021 3021 3022 3022 3024 3026 3028 3029 3030 3031 3032 3033 3034 3037 3039 3040 3042 3044 3046 3048 3049 3049 3050 3051 3052 3053 3055 3053 3052 3053 3055 3056 3057 3058 3057 3057 3059 3061 3062 3063 3063 3064 3066 3068 3069 3072 3074 3071 3072 3078 3083 3085 3087 3090 3093 3094 3096 3098 3101 3103 3104 3104 3105 3105 3105
3009 3009 3009 3008 3006 3007 3008 3008 3009 3008 3007 3009 3010 3010 3010 3010 3011 3010 3010 3012 3014 3015 3015 3014 3014 3016 3018 3021 3023 3023 3023 3024 3024 3026 3028 3029 3031 3034 3035 3037 3039 3042 3044 3045 3046 3047 3049 3050 3051 3051 3050 3049 3051 3052 3052 3055 3054 3049 3049 3053 3056 3057 3059 3059 3060 3061 3063 3065 3066 3066 3065 3069 3075 3078 3079 3081 3083 3086 3088 3091 3094 3097 3098 3099 3100 3101 3102 3101